sat.trackr.live / text

‹ back to catalog

STARLINK-35158

NORAD 66381 · 2025-257B

PAYLOAD ACTIVE UNKNOWN

§ Identity

Operator
Country
US
Launch date
2025-11-09
Launch site
AFETR
Launch vehicle
Mass (kg)
RCS (m²)

Purposes: comms

External: N2YO · Heavens-Above · Gunter

§ Orbital elements

Epoch: 2026-05-25T04:59:28.271040Z

Period
94.11 min
Inclination
53.1594°
Eccentricity
0.0001749
Mean motion
15.30178592 rev/d
Perigee alt
474.1 km
Apogee alt
476.5 km
Semi-major
6,853.4 km
B*
6.5734e-4
RAAN
221.9715°
Arg perigee
85.9042°
Mean anomaly
274.2158°
Rev number
3,144

§ Raw data

STARLINK-351581 66381U 25257B   26145.20796610  .00019147  00000+0  65734-3 0  99932 66381  53.1594 221.9715 0001749  85.9042 274.2158 15.30178592 31441

JSON: /api/v1/satellites/66381 · /tle

For live sub-satellite position, see the globe view (requires WebGL).

§ Visibility from observer

Set your observer location to see the next 7 days of passes ≥ 10°. The values pass through the URL so the page stays shareable.

No JS? Fill the form by hand. The geolocation button needs JavaScript.